Location: Newark
(48.5178°N, 4.2361°E)
Time: 04:16:05
(UTC+00:00)

ISS - Pass Details

Date: 28 January 2021
Orbit: 417 x 422 km, 51.6° (Epoch: 08 March)

Event Time Altitude Azimuth Distance (km) Brightness Sun altitude
Rises 17:47:28 0° 276° (W) 2,372 1.6 -12.0°
Reaches altitude 10° 17:49:37 10° 283° (WNW) 1,509 0.1 -12.3°
Maximum altitude 17:52:54 47° 358° (N) 569 -3.2 -12.9°
Enters shadow 17:54:40 23° 62° (ENE) 939 -2.6 -13.1°
